Location: Bear Valley
(38.4650°N, 120.0390°W)
Time: 00:26:29
(UTC-07:00)

Envisat - Visible Passes

Search period start: 21 March 2019 00:00
Search period end: 31 March 2019 00:00
Orbit: 764 x 766 km, 98.2° (Epoch: 21 March)

Date Brightness Start Highest point End Pass type
(mag) Time Alt. Az. Time Alt. Az. Time Alt. Az.
21 Mar 5.3 20:36:26 10° SSW 20:40:31 25° W 20:44:39 10° NW visible
22 Mar 3.8 19:58:38 10° S 20:03:36 57° W 20:08:36 10° NNW visible
23 Mar 6.0 21:03:49 10° WSW 21:06:18 14° W 21:08:47 10° WNW visible
24 Mar 4.9 20:24:46 10° SSW 20:29:15 31° W 20:33:44 10° NW visible
25 Mar 3.3 19:47:19 10° S 19:52:22 73° WSW 19:57:28 10° NNW visible
26 Mar 5.8 20:51:38 10° SW 20:54:58 18° W 20:58:19 10° NW visible
27 Mar 4.5 20:13:15 10° SSW 20:17:58 40° W 20:22:43 10° NNW visible
29 Mar 5.5 20:39:44 10° SW 20:43:39 22° W 20:47:36 10° NW visible
30 Mar 4.0 20:01:48 10° S 20:06:43 51° W 20:11:39 10° NNW visible
